CW1500 Weather Reports


Display with metric or nautical units.
time (UTC)temp
F
wind
direction
speed
MPH
gust
MPH
rain 1hr
in
rain 24hr
in
rain mn
in
humidity
%
barometer
mb
20260504040243 42 275 0.0 0.0 0.00 0.00 0.00 72 1017.4
20260504033218 44 275 0.0 0.0 0.00 0.00 0.00 68 1017.1
20260504030213 45 275 0.0 0.0 0.00 0.00 0.00 60 1017.1
20260504023234 45 275 0.0 0.0 0.00 0.00 0.00 61 1017.1
20260504020226 47 276 0.0 0.0 0.00 0.00 0.00 56 1016.7
20260504013214 49 276 0.0 0.0 0.00 0.00 0.00 50 1016.5
20260504010223 52 276 0.0 0.0 0.00 0.00 0.00 44 1016.3
20260504003222 55 276 0.0 0.0 0.00 0.00 0.00 40 1016.1
20260504000226 58 276 0.0 1.0 0.00 0.00 0.00 33 1016.1
20260503233225 60 276 3.0 7.0 0.00 0.00 0.00 29 1016.0
20260503230243 62 277 2.0 7.0 0.00 0.00 0.00 28 1015.7
20260503223214 62 273 5.0 11.0 0.00 0.00 0.00 27 1015.6
20260503220228 62 274 1.0 10.0 0.00 0.00 0.00 28 1015.8
20260503213226 62 275 6.0 12.0 0.00 0.00 0.00 27 1016.0
20260503210220 62 257 5.0 13.0 0.00 0.00 0.00 28 1015.9
20260503203231 61 281 7.0 14.0 0.00 0.00 0.00 28 1016.0
20260503200230 61 257 6.0 15.0 0.00 0.00 0.00 30 1016.4
20260503193249 61 274 4.0 13.0 0.00 0.00 0.00 29 1016.9
20260503190228 59 315 6.0 15.0 0.00 0.00 0.00 30 1017.3
20260503183225 59 265 6.0 13.0 0.00 0.00 0.00 30 1017.6
20260503180217 58 263 2.0 15.0 0.00 0.00 0.00 34 1017.8
20260503173234 56 302 3.0 13.0 0.00 0.00 0.00 35 1018.1
20260503170226 55 272 6.0 15.0 0.00 0.00 0.00 35 1018.4
20260503150228 52 355 4.0 15.0 0.00 0.00 0.00 39 1019.4
20260503140214 49 286 2.0 14.0 0.00 0.00 0.00 48 1019.3
20260503130225 46 297 4.0 13.0 0.00 0.00 0.00 53 1019.5
20260503110241 40 332 1.0 3.0 0.00 0.00 0.00 68 1018.6
20260503100256 38 315 0.0 1.0 0.00 0.00 0.00 71 1017.9
20260503090219 41 315 0.0 5.0 0.00 0.00 0.00 65 1017.5
20260503080222 42 318 3.0 6.0 0.00 0.00 0.00 64 1017.2
20260503070232 42 319 1.0 6.0 0.00 0.00 0.00 63 1016.7
20260503060222 43 321 1.0 5.0 0.00 0.00 0.00 61 1016.5
20260503053222 44 321 1.0 6.0 0.00 0.00 0.00 59 1016.6
20260503050217 44 308 3.0 8.0 0.00 0.00 0.00 57 1016.7
20260503043231 44 321 1.0 7.0 0.00 0.00 0.00 57 1016.6